• In Austria
  • List of Countries
  • For 7 days
  • Water Temperature
  • Satellite Maps
  • Weather Map
  • News
  • Weather Widgets
  • user-avatar
    Login

    Hourly Weather Hurghada

    Today, 24 June, Sunday

    Time Temperature Precipitation Wind Pressure Humidity
    00:00 +29°C° 0 mm 6 mps 682 mmHg 30%
    01:00 +29°C° 0 mm 6 mps 681 mmHg 32%
    02:00 +28°C° 0 mm 6 mps 681 mmHg 35%
    03:00 +27°C° 0 mm 6 mps 681 mmHg 35%
    04:00 +27°C° 0 mm 5 mps 681 mmHg 34%
    05:00 +26°C° 0 mm 5 mps 681 mmHg 34%
    06:00 +27°C° 0 mm 6 mps 681 mmHg 29%
    07:00 +29°C° 0 mm 6 mps 682 mmHg 25%
    08:00 +30°C° 0 mm 7 mps 682 mmHg 20%
    09:00 +32°C° 0 mm 7 mps 682 mmHg 18%
    10:00 +33°C° 0 mm 7 mps 682 mmHg 17%
    11:00 +35°C° 0 mm 7 mps 683 mmHg 15%
    12:00 +35°C° 0 mm 7 mps 682 mmHg 14%
    13:00 +36°C° 0 mm 7 mps 682 mmHg 13%
    14:00 +38°C° 0 mm 7 mps 682 mmHg 12%
    15:00 +38°C° 0 mm 7 mps 682 mmHg 12%
    16:00 +36°C° 0 mm 7 mps 681 mmHg 13%
    17:00 +36°C° 0 mm 7 mps 681 mmHg 13%
    18:00 +35°C° 0 mm 7 mps 681 mmHg 14%
    19:00 +34°C° 0 mm 6 mps 681 mmHg 15%
    20:00 +32°C° 0 mm 5 mps 681 mmHg 17%
    21:00 +32°C° 0 mm 5 mps 681 mmHg 17%
    22:00 +30°C° 0 mm 5 mps 681 mmHg 18%
    23:00 +30°C° 0 mm 4 mps 681 mmHg 18%

    Tomorrow, 25 June, Monday

    Time Temperature Precipitation Wind Pressure Humidity
    00:00 +29°C° 0 mm 5 mps 681 mmHg 20%
    01:00 +28°C° 0 mm 5 mps 681 mmHg 23%
    02:00 +28°C° 0 mm 5 mps 680 mmHg 25%
    03:00 +27°C° 0 mm 5 mps 680 mmHg 27%
    04:00 +27°C° 0 mm 5 mps 680 mmHg 30%
    05:00 +26°C° 0 mm 5 mps 680 mmHg 32%
    06:00 +27°C° 0 mm 5 mps 680 mmHg 31%
    07:00 +28°C° 0 mm 5 mps 681 mmHg 29%
    08:00 +29°C° 0 mm 6 mps 681 mmHg 28%
    09:00 +32°C° 0 mm 5 mps 681 mmHg 24%
    10:00 +33°C° 0 mm 5 mps 681 mmHg 21%
    11:00 +35°C° 0 mm 5 mps 681 mmHg 17%
    12:00 +36°C° 0 mm 5 mps 681 mmHg 15%
    13:00 +37°C° 0 mm 5 mps 681 mmHg 14%
    14:00 +37°C° 0 mm 4 mps 681 mmHg 12%
    15:00 +37°C° 0 mm 5 mps 680 mmHg 12%
    16:00 +37°C° 0 mm 5 mps 680 mmHg 12%
    17:00 +37°C° 0 mm 5 mps 680 mmHg 11%
    18:00 +36°C° 0 mm 5 mps 680 mmHg 13%
    19:00 +34°C° 0 mm 4 mps 680 mmHg 14%
    20:00 +33°C° 0 mm 4 mps 680 mmHg 15%
    21:00 +32°C° 0 mm 4 mps 680 mmHg 16%
    22:00 +32°C° 0 mm 4 mps 680 mmHg 17%
    23:00 +30°C° 0 mm 4 mps 680 mmHg 17%

    Day after tomorrow, 26 June, Tuesday

    Time Temperature Precipitation Wind Pressure Humidity
    00:00 +30°C° 0 mm 4 mps 680 mmHg 20%
    01:00 +29°C° 0 mm 4 mps 680 mmHg 22%
    02:00 +28°C° 0 mm 4 mps 680 mmHg 24%
    03:00 +28°C° 0 mm 4 mps 679 mmHg 25%
    04:00 +27°C° 0 mm 4 mps 679 mmHg 26%
    05:00 +26°C° 0 mm 4 mps 679 mmHg 27%
    06:00 +28°C° 0 mm 4 mps 679 mmHg 23%
    07:00 +29°C° 0 mm 4 mps 680 mmHg 19%
    08:00 +32°C° 0 mm 4 mps 680 mmHg 15%
    09:00 +33°C° 0 mm 4 mps 681 mmHg 14%
    10:00 +34°C° 0 mm 4 mps 681 mmHg 12%
    11:00 +36°C° 0 mm 3 mps 681 mmHg 11%
    12:00 +37°C° 0 mm 3 mps 681 mmHg 11%
    13:00 +38°C° 0 mm 4 mps 681 mmHg 10%
    14:00 +38°C° 0 mm 4 mps 680 mmHg 10%
    15:00 +38°C° 0 mm 4 mps 680 mmHg 10%
    16:00 +38°C° 0 mm 4 mps 680 mmHg 11%
    17:00 +37°C° 0 mm 4 mps 680 mmHg 12%
    18:00 +36°C° 0 mm 3 mps 680 mmHg 14%
    19:00 +35°C° 0 mm 3 mps 680 mmHg 16%
    20:00 +33°C° 0 mm 3 mps 680 mmHg 18%
    21:00 +33°C° 0 mm 3 mps 680 mmHg 19%
    22:00 +31°C° 0 mm 3 mps 680 mmHg 19%
    23:00 +31°C° 0 mm 3 mps 680 mmHg 20%

    27 June, Wednesday

    Time Temperature Precipitation Wind Pressure Humidity
    00:00 +30°C° 0 mm 3 mps 680 mmHg 21%
    01:00 +29°C° 0 mm 3 mps 680 mmHg 23%
    02:00 +29°C° 0 mm 3 mps 680 mmHg 25%
    03:00 +28°C° 0 mm 3 mps 680 mmHg 27%
    04:00 +28°C° 0 mm 3 mps 680 mmHg 29%
    05:00 +27°C° 0 mm 3 mps 680 mmHg 31%
    06:00 +29°C° 0 mm 3 mps 680 mmHg 27%
    07:00 +30°C° 0 mm 4 mps 681 mmHg 24%
    08:00 +33°C° 0 mm 4 mps 681 mmHg 20%
    09:00 +34°C° 0 mm 3 mps 681 mmHg 17%
    10:00 +36°C° 0 mm 3 mps 681 mmHg 15%
    11:00 +37°C° 0 mm 3 mps 682 mmHg 12%
    12:00 +38°C° 0 mm 3 mps 681 mmHg 11%
    13:00 +39°C° 0 mm 3 mps 681 mmHg 10%
    14:00 +41°C° 0 mm 4 mps 681 mmHg 9%
    15:00 +39°C° 0 mm 3 mps 681 mmHg 9%
    16:00 +39°C° 0 mm 3 mps 681 mmHg 10%
    17:00 +38°C° 0 mm 3 mps 680 mmHg 10%
    18:00 +37°C° 0 mm 3 mps 680 mmHg 11%
    19:00 +36°C° 0 mm 3 mps 681 mmHg 12%
    20:00 +35°C° 0 mm 3 mps 681 mmHg 14%
    21:00 +34°C° 0 mm 3 mps 681 mmHg 14%
    22:00 +33°C° 0 mm 3 mps 681 mmHg 14%
    23:00 +33°C° 0 mm 3 mps 681 mmHg 14%

    28 June, Thursday

    Time Temperature Precipitation Wind Pressure Humidity
    00:00 +31°C° 0 mm 3 mps 680 mmHg 13%
    01:00 +31°C° 0 mm 3 mps 680 mmHg 12%
    02:00 +30°C° 0 mm 3 mps 680 mmHg 11%
    03:00 +30°C° 0 mm 3 mps 680 mmHg 12%
    04:00 +29°C° 0 mm 3 mps 680 mmHg 12%
    05:00 +29°C° 0 mm 3 mps 680 mmHg 12%
    06:00 +31°C° 0 mm 3 mps 681 mmHg 11%
    07:00 +34°C° 0 mm 3 mps 681 mmHg 10%
    08:00 +35°C° 0 mm 4 mps 682 mmHg 9%
    09:00 +37°C° 0 mm 4 mps 682 mmHg 8%
    10:00 +39°C° 0 mm 5 mps 682 mmHg 7%
    11:00 +41°C° 0 mm 5 mps 682 mmHg 6%
    12:00 +42°C° 0 mm 6 mps 682 mmHg 6%
    13:00 +42°C° 0 mm 6 mps 681 mmHg 6%
    14:00 +44°C° 0 mm 7 mps 681 mmHg 6%
    15:00 +42°C° 0 mm 6 mps 681 mmHg 7%
    16:00 +42°C° 0 mm 6 mps 681 mmHg 7%
    17:00 +41°C° 0 mm 6 mps 680 mmHg 7%
    18:00 +40°C° 0 mm 5 mps 680 mmHg 9%
    19:00 +38°C° 0 mm 4 mps 681 mmHg 10%
    20:00 +36°C° 0 mm 3 mps 681 mmHg 11%
    21:00 +35°C° 0 mm 3 mps 681 mmHg 12%
    22:00 +35°C° 0 mm 4 mps 680 mmHg 13%
    23:00 +34°C° 0 mm 4 mps 680 mmHg 14%

    29 June, Friday

    Time Temperature Precipitation Wind Pressure Humidity
    00:00 +33°C° 0 mm 4 mps 680 mmHg 18%
    01:00 +32°C° 0 mm 4 mps 680 mmHg 21%
    02:00 +30°C° 0 mm 4 mps 680 mmHg 25%
    03:00 +30°C° 0 mm 4 mps 680 mmHg 28%
    04:00 +29°C° 0 mm 4 mps 680 mmHg 31%
    05:00 +28°C° 0 mm 4 mps 680 mmHg 34%
    06:00 +30°C° 0 mm 5 mps 680 mmHg 30%
    07:00 +32°C° 0 mm 5 mps 680 mmHg 26%
    08:00 +33°C° 0 mm 6 mps 681 mmHg 22%
    09:00 +35°C° 0 mm 6 mps 681 mmHg 19%
    10:00 +36°C° 0 mm 6 mps 681 mmHg 17%
    11:00 +39°C° 0 mm 6 mps 681 mmHg 15%
    12:00 +39°C° 0 mm 6 mps 681 mmHg 14%
    13:00 +40°C° 0 mm 6 mps 681 mmHg 13%
    14:00 +41°C° 0 mm 6 mps 680 mmHg 12%
    15:00 +40°C° 0 mm 6 mps 680 mmHg 13%
    16:00 +40°C° 0 mm 6 mps 680 mmHg 14%
    17:00 +40°C° 0 mm 6 mps 680 mmHg 14%
    18:00 +37°C° 0 mm 5 mps 680 mmHg 17%
    19:00 +36°C° 0 mm 5 mps 680 mmHg 19%
    20:00 +35°C° 0 mm 4 mps 680 mmHg 21%
    21:00 +34°C° 0 mm 4 mps 680 mmHg 23%
    22:00 +33°C° 0 mm 4 mps 680 mmHg 24%
    23:00 +33°C° 0 mm 4 mps 680 mmHg 25%
    Show more